Hourly Data Report for September 12, 2017

All times are specified in Local Standard Time (LST). Add 1 hour to adjust for Daylight Saving Time where and when it is observed.

GRAND MANAN SAR CS
NEW BRUNSWICK

44°42'43.400" N
66°48'06.900" W
78.20 m
8101925
71030
XGM

Download Data

Hourly Data (September 2017)
Hourly Data Report for September 12, 2017
Temp Definition
°C
Dew Point Temp Definition
°C
Rel Hum Definition
%
Wind Dir Definition
10's deg

Wind Spd Definition
km/h
Visibility Definition
km
Stn Press Definition
kPa
Hmdx Definition


Wind Chill Definition


Weather Definition


TIME
00:00 13.4 11.7 89 33 10   100.62     LegendNANA
01:00 14.0 11.0 82 4 12   100.62     LegendNANA
02:00 12.5 11.1 91 5 6   100.57     LegendNANA
03:00 10.5 9.5 94 34 4   100.54     LegendNANA
04:00 10.2 9.8 97 33 12   100.50     LegendNANA
05:00 10.1 9.5 96 33 10   100.49     LegendNANA
06:00 10.7 9.7 94 34 8   100.46     LegendNANA
07:00 11.1 10.0 93 33 9   100.46     LegendNANA
08:00 14.7 11.6 82 32 9   100.43     LegendNANA
09:00 16.3 11.0 71 33 12   100.39     LegendNANA
10:00 18.2 11.0 63 33 11   100.36     LegendNANA
11:00 20.0 11.6 58 30 9   100.28     LegendNANA
12:00 21.5 12.1 55 29 8   100.21     LegendNANA
13:00 22.1 11.8 52 25 7   100.11     LegendNANA
14:00 22.7 13.6 56 23 9   100.02 26   LegendNANA
15:00 22.8 12.9 54 22 12   99.94 26   LegendNANA
16:00 21.3 11.7 54 24 14   99.90     LegendNANA
17:00 20.4 12.1 59 24 4   99.84     LegendNANA
18:00 18.4 11.8 65 26 9   99.77     LegendNANA
19:00 16.0 11.9 77 27 7   99.78     LegendNANA
20:00 15.9 12.3 79 27 8   99.80     LegendNANA
21:00 15.8 11.9 78 26 7   99.82     LegendNANA
22:00 17.5 12.9 75 29 8   99.81     LegendNANA
23:00 17.4 11.3 67 31 9   99.83     LegendNANA

Notes on Data Quality.

Legend

  • E = Estimated
  • M = Missing
  • NA = Not Available
  • ‡ = Partner data that is not subject to review by the National Climate Archives
Date modified: